Time,TemperatureF,DewpointF,PressureIn,WindDirection,WindDirectionDegrees,WindSpeedMPH,WindSpeedGustMPH,Humidity,HourlyPrecipIn,Conditions,Clouds,dailyrainin,SoftwareType,DateUTC
2013-04-24 00:02:00,38.0,33.0,30.04,West,276,3.0,-999.0,82,-99.99,,,-99.99,,2013-04-24 05:02:00,
2013-04-24 00:12:00,38.0,33.0,30.04,West,276,3.0,-999.0,82,-99.99,,,-99.99,,2013-04-24 05:12:00,
2013-04-24 00:22:00,38.0,33.0,30.04,NW,307,3.0,-999.0,81,-99.99,,,-99.99,,2013-04-24 05:22:00,
2013-04-24 00:32:00,38.0,32.0,30.04,West,279,4.0,-999.0,79,-99.99,,,-99.99,,2013-04-24 05:32:00,
2013-04-24 00:42:00,38.0,32.0,30.04,West,279,4.0,-999.0,79,-99.99,,,-99.99,,2013-04-24 05:42:00,
2013-04-24 00:52:00,38.0,32.0,30.04,NW,321,4.0,-999.0,80,-99.99,,,-99.99,,2013-04-24 05:52:00,
2013-04-24 01:02:00,38.0,32.0,30.03,NNW,328,3.0,-999.0,80,-99.99,,,-99.99,,2013-04-24 06:02:00,
2013-04-24 01:12:00,38.0,32.0,30.03,NNW,328,3.0,-999.0,80,-99.99,,,-99.99,,2013-04-24 06:12:00,
2013-04-24 01:21:00,38.0,32.0,30.04,WNW,302,3.0,-999.0,80,-99.99,,,-99.99,,2013-04-24 06:21:00,
2013-04-24 01:32:00,38.0,32.0,30.04,NNW,335,2.0,-999.0,80,-99.99,,,-99.99,,2013-04-24 06:32:00,
2013-04-24 01:42:00,38.0,32.0,30.04,NNW,335,2.0,-999.0,80,-99.99,,,-99.99,,2013-04-24 06:42:00,
2013-04-24 01:51:00,38.0,32.0,30.04,NW,319,2.0,-999.0,80,-99.99,,,-99.99,,2013-04-24 06:51:00,
2013-04-24 02:02:00,37.0,31.0,30.03,NW,317,2.0,-999.0,80,-99.99,,,-99.99,,2013-04-24 07:02:00,
2013-04-24 02:11:00,37.0,31.0,30.03,NW,317,2.0,-999.0,80,-99.99,,,-99.99,,2013-04-24 07:11:00,
2013-04-24 02:22:00,37.0,32.0,30.03,NW,309,3.0,-999.0,81,-99.99,,,-99.99,,2013-04-24 07:22:00,
2013-04-24 02:32:00,37.0,31.0,30.02,NW,312,2.0,-999.0,80,-99.99,,,-99.99,,2013-04-24 07:32:00,
2013-04-24 02:42:00,37.0,31.0,30.02,NW,312,2.0,-999.0,80,-99.99,,,-99.99,,2013-04-24 07:42:00,
2013-04-24 02:52:00,37.0,31.0,30.02,NW,323,3.0,-999.0,80,-99.99,,,-99.99,,2013-04-24 07:52:00,
2013-04-24 03:02:00,37.0,32.0,30.03,WNW,295,2.0,-999.0,83,-99.99,,,-99.99,,2013-04-24 08:02:00,
2013-04-24 03:12:00,37.0,32.0,30.03,WNW,295,2.0,-999.0,83,-99.99,,,-99.99,,2013-04-24 08:12:00,
2013-04-24 03:21:00,37.0,33.0,30.03,West,267,3.0,-999.0,84,-99.99,,,-99.99,,2013-04-24 08:21:00,
2013-04-24 03:33:00,36.0,32.0,30.02,WNW,300,3.0,-999.0,86,-99.99,,,-99.99,,2013-04-24 08:33:00,
2013-04-24 03:42:00,36.0,32.0,30.02,WNW,300,3.0,-999.0,86,-99.99,,,-99.99,,2013-04-24 08:42:00,
2013-04-24 03:52:00,36.0,32.0,30.03,West,264,3.0,-999.0,85,-99.99,,,-99.99,,2013-04-24 08:52:00,
2013-04-24 04:02:00,36.0,32.0,30.03,WNW,301,2.0,-999.0,85,-99.99,,,-99.99,,2013-04-24 09:02:00,
2013-04-24 04:11:00,36.0,32.0,30.03,WNW,301,2.0,-999.0,85,-99.99,,,-99.99,,2013-04-24 09:11:00,
2013-04-24 04:21:00,36.0,31.0,30.04,WNW,288,3.0,-999.0,83,-99.99,,,-99.99,,2013-04-24 09:21:00,
2013-04-24 04:33:00,35.0,31.0,30.04,West,275,3.0,-999.0,84,-99.99,,,-99.99,,2013-04-24 09:33:00,
2013-04-24 04:42:00,35.0,31.0,30.04,West,275,3.0,-999.0,84,-99.99,,,-99.99,,2013-04-24 09:42:00,
2013-04-24 04:53:00,35.0,31.0,30.04,WNW,303,2.0,-999.0,84,-99.99,,,-99.99,,2013-04-24 09:53:00,
2013-04-24 05:02:00,35.0,31.0,30.05,West,280,3.0,-999.0,84,-99.99,,,-99.99,,2013-04-24 10:02:00,
2013-04-24 05:12:00,35.0,31.0,30.05,West,280,3.0,-999.0,84,-99.99,,,-99.99,,2013-04-24 10:12:00,
2013-04-24 05:22:00,35.0,31.0,30.05,West,275,2.0,-999.0,85,-99.99,,,-99.99,,2013-04-24 10:22:00,
2013-04-24 05:32:00,34.0,30.0,30.05,WNW,293,3.0,-999.0,86,-99.99,,,-99.99,,2013-04-24 10:32:00,
2013-04-24 05:42:00,34.0,30.0,30.05,WNW,293,3.0,-999.0,86,-99.99,,,-99.99,,2013-04-24 10:42:00,
2013-04-24 05:52:00,34.0,30.0,30.06,WNW,293,2.0,-999.0,86,-99.99,,,-99.99,,2013-04-24 10:52:00,
2013-04-24 06:02:00,34.0,30.0,30.06,West,267,2.0,-999.0,86,-99.99,,,-99.99,,2013-04-24 11:02:00,
2013-04-24 06:11:00,34.0,30.0,30.06,West,267,2.0,-999.0,86,-99.99,,,-99.99,,2013-04-24 11:11:00,
2013-04-24 06:21:00,34.0,30.0,30.06,NW,325,2.0,-999.0,86,-99.99,,,-99.99,,2013-04-24 11:21:00,
2013-04-24 06:32:00,34.0,30.0,30.05,NW,306,2.0,-999.0,85,-99.99,,,-99.99,,2013-04-24 11:32:00,
2013-04-24 06:42:00,34.0,30.0,30.05,NW,306,2.0,-999.0,85,-99.99,,,-99.99,,2013-04-24 11:42:00,
2013-04-24 06:52:00,34.0,30.0,30.06,West,268,1.0,-999.0,85,-99.99,,,-99.99,,2013-04-24 11:52:00,
2013-04-24 07:02:00,34.0,30.0,30.07,NW,324,2.0,-999.0,85,-99.99,,,-99.99,,2013-04-24 12:02:00,
2013-04-24 07:11:00,34.0,30.0,30.07,NW,324,2.0,-999.0,85,-99.99,,,-99.99,,2013-04-24 12:11:00,
2013-04-24 07:22:00,34.0,30.0,30.08,West,265,3.0,-999.0,85,-99.99,,,-99.99,,2013-04-24 12:22:00,
2013-04-24 07:32:00,34.0,30.0,30.09,NW,322,2.0,-999.0,85,-99.99,,,-99.99,,2013-04-24 12:32:00,
2013-04-24 07:42:00,34.0,30.0,30.09,NW,322,2.0,-999.0,85,-99.99,,,-99.99,,2013-04-24 12:42:00,
2013-04-24 07:51:00,33.0,29.0,30.09,West,273,3.0,-999.0,85,-99.99,,,-99.99,,2013-04-24 12:51:00,
2013-04-24 08:01:00,33.0,29.0,30.09,West,276,3.0,-999.0,85,-99.99,,,-99.99,,2013-04-24 13:01:00,
2013-04-24 08:12:00,33.0,29.0,30.09,West,276,3.0,-999.0,85,-99.99,,,-99.99,,2013-04-24 13:12:00,
2013-04-24 08:22:00,34.0,30.0,30.10,WNW,288,3.0,-999.0,84,-99.99,,,-99.99,,2013-04-24 13:22:00,
2013-04-24 08:31:00,35.0,30.0,30.10,WNW,290,4.0,-999.0,81,-99.99,,,-99.99,,2013-04-24 13:31:00,
2013-04-24 08:41:00,35.0,30.0,30.10,WNW,290,4.0,-999.0,81,-99.99,,,-99.99,,2013-04-24 13:41:00,
2013-04-24 08:52:00,35.0,29.0,30.10,West,274,4.0,-999.0,80,-99.99,,,-99.99,,2013-04-24 13:52:00,
2013-04-24 09:01:00,36.0,30.0,30.11,WNW,294,5.0,-999.0,79,-99.99,,,-99.99,,2013-04-24 14:01:00,
2013-04-24 09:11:00,36.0,30.0,30.11,WNW,294,5.0,-999.0,79,-99.99,,,-99.99,,2013-04-24 14:11:00,
2013-04-24 09:21:00,36.0,30.0,30.11,West,273,5.0,-999.0,78,-99.99,,,-99.99,,2013-04-24 14:21:00,
2013-04-24 09:32:00,37.0,30.0,30.11,WNW,299,4.0,-999.0,77,-99.99,,,-99.99,,2013-04-24 14:32:00,
2013-04-24 09:41:00,37.0,30.0,30.11,WNW,299,4.0,-999.0,77,-99.99,,,-99.99,,2013-04-24 14:41:00,
2013-04-24 09:51:00,38.0,31.0,30.11,WNW,296,5.0,-999.0,76,-99.99,,,-99.99,,2013-04-24 14:51:00,
2013-04-24 10:01:00,39.0,32.0,30.11,West,269,4.0,-999.0,75,-99.99,,,-99.99,,2013-04-24 15:01:00,
2013-04-24 10:11:00,39.0,32.0,30.11,West,269,4.0,-999.0,75,-99.99,,,-99.99,,2013-04-24 15:11:00,
2013-04-24 10:21:00,39.0,31.0,30.12,West,279,4.0,-999.0,73,-99.99,,,-99.99,,2013-04-24 15:21:00,
2013-04-24 10:33:00,40.0,31.0,30.11,West,266,4.0,-999.0,71,-99.99,,,-99.99,,2013-04-24 15:33:00,
2013-04-24 10:42:00,40.0,31.0,30.11,West,266,4.0,-999.0,71,-99.99,,,-99.99,,2013-04-24 15:42:00,
2013-04-24 10:53:00,42.0,29.0,30.12,West,264,4.0,-999.0,59,-99.99,,,-99.99,,2013-04-24 15:53:00,
2013-04-24 11:03:00,42.0,30.0,30.12,West,281,4.0,-999.0,63,-99.99,,,-99.99,,2013-04-24 16:03:00,
2013-04-24 11:12:00,42.0,30.0,30.12,West,281,4.0,-999.0,63,-99.99,,,-99.99,,2013-04-24 16:12:00,
2013-04-24 11:23:00,41.0,29.0,30.12,West,281,4.0,-999.0,61,-99.99,,,-99.99,,2013-04-24 16:23:00,
2013-04-24 11:32:00,42.0,29.0,30.12,West,264,4.0,-999.0,60,-99.99,,,-99.99,,2013-04-24 16:32:00,
2013-04-24 11:42:00,42.0,29.0,30.12,West,264,4.0,-999.0,60,-99.99,,,-99.99,,2013-04-24 16:42:00,
2013-04-24 11:52:00,43.0,29.0,30.12,West,271,4.0,-999.0,57,-99.99,,,-99.99,,2013-04-24 16:52:00,
2013-04-24 12:02:00,44.0,31.0,30.11,WNW,289,3.0,-999.0,60,-99.99,,,-99.99,,2013-04-24 17:02:00,
2013-04-24 12:12:00,44.0,31.0,30.11,WNW,289,3.0,-999.0,60,-99.99,,,-99.99,,2013-04-24 17:12:00,
2013-04-24 12:22:00,44.0,30.0,30.11,West,265,3.0,-999.0,58,-99.99,,,-99.99,,2013-04-24 17:22:00,
2013-04-24 12:32:00,45.0,29.0,30.11,West,259,4.0,-999.0,54,-99.99,,,-99.99,,2013-04-24 17:32:00,
2013-04-24 12:42:00,45.0,29.0,30.11,West,259,4.0,-999.0,54,-99.99,,,-99.99,,2013-04-24 17:42:00,
2013-04-24 12:51:00,46.0,30.0,30.12,WSW,252,3.0,-999.0,53,-99.99,,,-99.99,,2013-04-24 17:51:00,
2013-04-24 13:02:00,45.0,30.0,30.11,WSW,253,4.0,-999.0,55,-99.99,,,-99.99,,2013-04-24 18:02:00,
2013-04-24 13:12:00,45.0,30.0,30.11,WSW,253,4.0,-999.0,55,-99.99,,,-99.99,,2013-04-24 18:12:00,
2013-04-24 13:22:00,46.0,31.0,30.11,West,269,3.0,-999.0,56,-99.99,,,-99.99,,2013-04-24 18:22:00,
2013-04-24 13:33:00,47.0,31.0,30.11,West,280,2.0,-999.0,54,-99.99,,,-99.99,,2013-04-24 18:33:00,
2013-04-24 13:42:00,47.0,31.0,30.11,West,280,2.0,-999.0,54,-99.99,,,-99.99,,2013-04-24 18:42:00,
2013-04-24 13:52:00,47.0,31.0,30.11,West,265,4.0,-999.0,54,-99.99,,,-99.99,,2013-04-24 18:52:00,
2013-04-24 14:02:00,47.0,30.0,30.11,West,270,3.0,-999.0,51,-99.99,,,-99.99,,2013-04-24 19:02:00,
2013-04-24 14:11:00,47.0,30.0,30.11,West,270,3.0,-999.0,51,-99.99,,,-99.99,,2013-04-24 19:11:00,
2013-04-24 14:21:00,48.0,31.0,30.10,WNW,286,4.0,-999.0,52,-99.99,,,-99.99,,2013-04-24 19:21:00,
2013-04-24 14:32:00,48.0,29.0,30.10,West,279,4.0,-999.0,47,-99.99,,,-99.99,,2013-04-24 19:32:00,
2013-04-24 14:42:00,48.0,29.0,30.10,West,279,4.0,-999.0,47,-99.99,,,-99.99,,2013-04-24 19:42:00,
2013-04-24 14:52:00,49.0,29.0,30.10,SSW,192,4.0,-999.0,46,-99.99,,,-99.99,,2013-04-24 19:52:00,
2013-04-24 15:02:00,49.0,29.0,30.10,SW,229,3.0,-999.0,46,-99.99,,,-99.99,,2013-04-24 20:02:00,
2013-04-24 15:11:00,49.0,29.0,30.10,SW,229,3.0,-999.0,46,-99.99,,,-99.99,,2013-04-24 20:11:00,
2013-04-24 15:22:00,50.0,29.0,30.11,WSW,255,3.0,-999.0,45,-99.99,,,-99.99,,2013-04-24 20:22:00,
2013-04-24 15:32:00,50.0,27.0,30.10,WSW,257,3.0,-999.0,40,-99.99,,,-99.99,,2013-04-24 20:32:00,
2013-04-24 15:42:00,50.0,27.0,30.10,WSW,257,3.0,-999.0,40,-99.99,,,-99.99,,2013-04-24 20:42:00,
2013-04-24 15:51:00,50.0,27.0,30.10,WNW,282,2.0,-999.0,41,-99.99,,,-99.99,,2013-04-24 20:51:00,
2013-04-24 16:02:00,50.0,27.0,30.09,WNW,283,3.0,-999.0,40,-99.99,,,-99.99,,2013-04-24 21:02:00,
2013-04-24 16:11:00,50.0,27.0,30.09,WNW,283,3.0,-999.0,40,-99.99,,,-99.99,,2013-04-24 21:11:00,
2013-04-24 16:21:00,51.0,27.0,30.09,West,263,2.0,-999.0,39,-99.99,,,-99.99,,2013-04-24 21:21:00,
2013-04-24 16:33:00,51.0,26.0,30.09,West,279,3.0,-999.0,38,-99.99,,,-99.99,,2013-04-24 21:33:00,
2013-04-24 16:42:00,51.0,26.0,30.09,West,279,3.0,-999.0,38,-99.99,,,-99.99,,2013-04-24 21:42:00,
2013-04-24 16:52:00,51.0,26.0,30.09,NW,310,3.0,-999.0,37,-99.99,,,-99.99,,2013-04-24 21:52:00,
2013-04-24 17:03:00,51.0,26.0,30.09,WNW,284,3.0,-999.0,38,-99.99,,,-99.99,,2013-04-24 22:03:00,
2013-04-24 17:12:00,51.0,26.0,30.09,WNW,284,3.0,-999.0,38,-99.99,,,-99.99,,2013-04-24 22:12:00,
2013-04-24 17:22:00,52.0,30.0,30.08,WSW,242,2.0,-999.0,42,-99.99,,,-99.99,,2013-04-24 22:22:00,
2013-04-24 17:33:00,52.0,27.0,30.09,West,261,2.0,-999.0,37,-99.99,,,-99.99,,2013-04-24 22:33:00,
2013-04-24 17:42:00,52.0,27.0,30.09,West,261,2.0,-999.0,37,-99.99,,,-99.99,,2013-04-24 22:42:00,
2013-04-24 17:52:00,51.0,26.0,30.08,WSW,252,2.0,-999.0,38,-99.99,,,-99.99,,2013-04-24 22:52:00,
2013-04-24 18:02:00,51.0,28.0,30.09,SW,232,2.0,-999.0,40,-99.99,,,-99.99,,2013-04-24 23:02:00,
2013-04-24 18:12:00,51.0,28.0,30.09,SW,232,2.0,-999.0,40,-99.99,,,-99.99,,2013-04-24 23:12:00,
2013-04-24 18:21:00,51.0,30.0,30.09,WSW,239,3.0,-999.0,44,-99.99,,,-99.99,,2013-04-24 23:21:00,
2013-04-24 18:32:00,51.0,29.0,30.09,SW,232,2.0,-999.0,43,-99.99,,,-99.99,,2013-04-24 23:32:00,
2013-04-24 18:42:00,51.0,29.0,30.09,SW,232,2.0,-999.0,43,-99.99,,,-99.99,,2013-04-24 23:42:00,
2013-04-24 18:51:00,51.0,29.0,30.09,South,185,2.0,-999.0,43,-99.99,,,-99.99,,2013-04-24 23:51:00,
2013-04-24 19:01:00,51.0,30.0,30.08,West,268,2.0,-999.0,45,-99.99,,,-99.99,,2013-04-25 00:01:00,
2013-04-24 19:12:00,51.0,30.0,30.08,West,268,2.0,-999.0,45,-99.99,,,-99.99,,2013-04-25 00:12:00,
2013-04-24 19:22:00,50.0,29.0,30.08,WSW,239,2.0,-999.0,45,-99.99,,,-99.99,,2013-04-25 00:22:00,
2013-04-24 19:32:00,50.0,30.0,30.08,SSW,202,1.0,-999.0,46,-99.99,,,-99.99,,2013-04-25 00:32:00,
2013-04-24 19:42:00,50.0,30.0,30.08,SSW,202,1.0,-999.0,46,-99.99,,,-99.99,,2013-04-25 00:42:00,
2013-04-24 19:52:00,49.0,29.0,30.08,SSW,198,1.0,-999.0,45,-99.99,,,-99.99,,2013-04-25 00:52:00,
2013-04-24 20:01:00,49.0,29.0,30.08,South,186,1.0,-999.0,46,-99.99,,,-99.99,,2013-04-25 01:01:00,
2013-04-24 20:11:00,49.0,29.0,30.08,South,186,1.0,-999.0,46,-99.99,,,-99.99,,2013-04-25 01:11:00,
2013-04-24 20:23:00,48.0,29.0,30.08,South,188,0.0,-999.0,48,-99.99,,,-99.99,,2013-04-25 01:23:00,
2013-04-24 20:32:00,47.0,29.0,30.08,South,175,0.0,-999.0,49,-99.99,,,-99.99,,2013-04-25 01:32:00,
2013-04-24 20:42:00,47.0,29.0,30.08,South,175,0.0,-999.0,49,-99.99,,,-99.99,,2013-04-25 01:42:00,
2013-04-24 20:52:00,47.0,29.0,30.09,South,182,1.0,-999.0,49,-99.99,,,-99.99,,2013-04-25 01:52:00,
2013-04-24 21:02:00,46.0,28.0,30.09,SSW,193,0.0,-999.0,50,-99.99,,,-99.99,,2013-04-25 02:02:00,
2013-04-24 21:11:00,46.0,28.0,30.09,SSW,193,0.0,-999.0,50,-99.99,,,-99.99,,2013-04-25 02:11:00,
2013-04-24 21:22:00,46.0,29.0,30.10,South,184,0.0,-999.0,51,-99.99,,,-99.99,,2013-04-25 02:22:00,
2013-04-24 21:32:00,46.0,30.0,30.10,SSE,167,1.0,-999.0,53,-99.99,,,-99.99,,2013-04-25 02:32:00,
2013-04-24 21:42:00,46.0,30.0,30.10,SSE,167,1.0,-999.0,53,-99.99,,,-99.99,,2013-04-25 02:42:00,
2013-04-24 21:51:00,46.0,30.0,30.10,SSE,167,1.0,-999.0,53,-99.99,,,-99.99,,2013-04-25 02:51:00,
2013-04-24 22:02:00,45.0,31.0,30.10,South,176,0.0,-999.0,57,-99.99,,,-99.99,,2013-04-25 03:02:00,
2013-04-24 22:11:00,45.0,31.0,30.10,South,176,0.0,-999.0,57,-99.99,,,-99.99,,2013-04-25 03:11:00,
2013-04-24 22:22:00,45.0,32.0,30.10,South,182,2.0,-999.0,59,-99.99,,,-99.99,,2013-04-25 03:22:00,
2013-04-24 22:33:00,44.0,31.0,30.10,South,182,1.0,-999.0,60,-99.99,,,-99.99,,2013-04-25 03:33:00,
2013-04-24 22:42:00,44.0,31.0,30.10,South,182,1.0,-999.0,60,-99.99,,,-99.99,,2013-04-25 03:42:00,
2013-04-24 22:52:00,44.0,31.0,30.09,South,174,2.0,-999.0,61,-99.99,,,-99.99,,2013-04-25 03:52:00,
2013-04-24 23:03:00,44.0,32.0,30.09,South,178,1.0,-999.0,62,-99.99,,,-99.99,,2013-04-25 04:03:00,
2013-04-24 23:12:00,44.0,32.0,30.09,South,178,1.0,-999.0,62,-99.99,,,-99.99,,2013-04-25 04:12:00,
2013-04-24 23:23:00,44.0,32.0,30.09,SSW,195,2.0,-999.0,62,-99.99,,,-99.99,,2013-04-25 04:23:00,
2013-04-24 23:32:00,44.0,32.0,30.10,South,185,2.0,-999.0,63,-99.99,,,-99.99,,2013-04-25 04:32:00,
2013-04-24 23:43:00,44.0,32.0,30.10,South,185,2.0,-999.0,63,-99.99,,,-99.99,,2013-04-25 04:43:00,
2013-04-24 23:52:00,44.0,32.0,30.09,South,178,1.0,-999.0,63,-99.99,,,-99.99,,2013-04-25 04:52:00,